www.pogodaiklimat.ru
ПОГОДА в Регенсбурге
Время
(UTC), дата
10 6.12
11 6.12
12 6.12
13 6.12
14 6.12
15 6.12
16 6.12
17 6.12
18 6.12
19 6.12
20 6.12
21 6.12
22 6.12
23 6.12
00 7.12
01 7.12
02 7.12
03 7.12
04 7.12
05 7.12
06 7.12
07 7.12
08 7.12
09 7.12
10 7.12
11 7.12
12 7.12
13 7.12
14 7.12
15 7.12
16 7.12
17 7.12
18 7.12
19 7.12
20 7.12
21 7.12
22 7.12
23 7.12
00 8.12
01 8.12
02 8.12
03 8.12
04 8.12
05 8.12
06 8.12
07 8.12
08 8.12
09 8.12
10 8.12
11 8.12
12 8.12
13 8.12
14 8.12
15 8.12
16 8.12
17 8.12
18 8.12
19 8.12
20 8.12
21 8.12
22 8.12
23 8.12
00 9.12
01 9.12
02 9.12
03 9.12
04 9.12
05 9.12
06 9.12
07 9.12
08 9.12
09 9.12
10 9.12
11 9.12
12 9.12
13 9.12
14 9.12
15 9.12
16 9.12
17 9.12
18 9.12
19 9.12
20 9.12
21 9.12
22 9.12
23 9.12
00 10.12
01 10.12
02 10.12
03 10.12
04 10.12
05 10.12
06 10.12
07 10.12
08 10.12
09 10.12
10 10.12
11 10.12
12 10.12
14 10.12
15 10.12
16 10.12
17 10.12
18 10.12
19 10.12
20 10.12
21 10.12
22 10.12
23 10.12
00 11.12
01 11.12
02 11.12
03 11.12
04 11.12
05 11.12
06 11.12
07 11.12
08 11.12
09 11.12
10 11.12
11 11.12
12 11.12
13 11.12
14 11.12
15 11.12
16 11.12
17 11.12
18 11.12
19 11.12
20 11.12
21 11.12
22 11.12
23 11.12
00 12.12
01 12.12
02 12.12
03 12.12
04 12.12
05 12.12
06 12.12
07 12.12
08 12.12
09 12.12
10 12.12
11 12.12
12 12.12
13 12.12
14 12.12
15 12.12
16 12.12
17 12.12
18 12.12
19 12.12
20 12.12
21 12.12
22 12.12
23 12.12
00 13.12
01 13.12
02 13.12
03 13.12
04 13.12
05 13.12
06 13.12
07 13.12
08 13.12
09 13.12
10 13.12
Ветер
(напр.,м/с)
Видим. Явления Облачность Т
(С)
Тd
(С)
f
(%)
Тe
(С)
Тes
(С)
Комфортность P
(гПа)
Po
(гПа)
Тmin
(С)
Tmax
(С)
R
(мм)
R24
(мм)
S
(см)
ЮВ 3-5
{6}
8000 м 10/10 120 м
[]
-2.4 -3.2 94 -8 -8 1023.7 977.2
ЮВ 3-5
{6}
8000 м 10/10 120 м
[]
-1.9 -3.0 92 -7 -7 1022.8 976.5
ЮВ 3 10 км 10/10 180 м
[]
-1.5 -3.0 89 -7 -7 1022.0 975.8 1
ЮВ 3-5
{6}
10 км 9/9 180 м
[]
-1.1 -2.7 89 -6 -6 1021.1 975.0
ЮВ 4-7
{7}
11 км 10/10 180 м
[]
-1.1 -2.8 88 -7 -7 1020.5 974.4
ЮВ 4 11 км 10/10 180 м
[]
-1.3 -2.8 90 -7 -7 1020.2 974.1
ЮВ 4-7
{7}
9000 м 10/10 180 м
[]
-1.4 -2.7 91 -7 -7 1019.7 973.6
ЮВ 4-6
{7}
7000 м дымка 10/10 120 м
[]
-1.3 -2.2 94 -7 -7 1019.4 973.3
ЮВ 5 4000 м дымка 10/10 50 м
[]
-1.5 -2.0 96 -8 -8 1019.1 973.0 -3.0 -0.9
ЮВ 5-8
{9}
1200 м в посл. час туман {дымка} 10/10 30 м
[]
-1.9 -2.2 98 -9 -9 1019.1 972.9
ЮВ 4-7
{8}
700 м переохл. туман {дымка} 10/10 30 м
[]
-2.0 -2.2 99 -8 -8 1018.7 972.5
ЮВ 3 800 м переохл. туман {дымка} 10/10 30 м
[]
-2.0 -2.2 99 -7 -7 1018.4 972.2
ЮВ 4-9
{9}
400 м переохл. туман {дымка} 10/10 30 м
[]
-2.3 -2.5 99 -9 -9 1018.0 971.8
ЮВ 4-7
{8}
500 м переохл. туман {дымка} 10/10 30 м
[]
-2.3 -2.5 99 -9 -9 1017.8 971.6
ЮВ 4 700 м слаб. переохл. дождь (гололёд) {морось} 10/10 <50 м
[]
-2.0 -2.3 98 -8 -8 1016.9 970.8 0.2
ЮВ 5-8
{8}
3100 м слаб. переохл. дождь (гололёд) 10/10 30 м
[]
-1.7 -2.1 97 -8 -8 1015.9 969.9
ЮВ 4 5000 м слаб. переохл. дождь (гололёд) {морось} 9/9 60 м
[]
-1.4 -1.6 99 -7 -7 1015.6 969.7
Ю 2 6000 м в посл. час переохл. осадки (гололёд) {морось} 10/10 60 м
[]
-1.0 -1.3 98 -5 -5 1015.6 969.7 2
ЮВ 3 4200 м слаб. переохл. дождь (гололёд) 10/10 30 м
[]
-0.8 -1.0 99 -6 -6 1015.5 969.7
ЮВ 2 5000 м слаб. переохл. морось (гололёд) {дождь} 9/9 1020 м
[]
-0.1 -0.4 98 -4 -4 1015.6 969.9
ЮВ 3 7000 м в посл. час переохл. осадки (гололёд) {морось} 10/10 600 м
[]
+0.3 +0.1 99 -5 -5 1016.1 970.4 -2.3 +0.4 2
ЮВ 3 5000 м в посл. час дождь {морось} 10/10 1140 м
[]
+0.3 +0.2 99 -5 -5 1016.8 971.1
ЮЗ 3 29 км в посл. час дождь {морось} 9/9 840 м
[]
+3.2 +2.8 97 -1 -1 1016.6 971.4
Ю 3 30 км в посл. час дождь {морось} 9/9 840 м
[]
+4.6 +3.9 95 +1 +1 1016.4 971.5 0.2
ЮЗ 4 45 км 9/9 800 м
[]
+6.2 +4.8 91 +2 +2 1016.8 972.1
ЮЗ 4 60 км в посл. час дождь {морось} 10/10 870 м
[]
+6.9 +5.1 88 +3 +3 1016.8 972.2
ЮЗ 3 50 км в посл. час дождь {морось} 10/10 720 м
[]
+7.3 +5.3 87 +4 +4 1016.6 972.1 0.0
З 4 65 км в посл. час дождь {морось} 10/10 660 м
[]
+8.0 +5.6 85 +5 +5 1016.8 972.4
ЮЗ 3 >70 км в посл. час дождь {морось} 10/10 630 м
[]
+7.4 +4.9 84 +5 +5 1016.7 972.2
ЮЗ 4 >70 км в посл. час дождь {морось} 10/10 750 м
[]
+7.1 +4.8 85 +4 +4 1017.6 973.0 0.0
З 1 >70 км в посл. час дождь {морось} 10/10 630 м
[]
+6.5 +4.6 88 +5 +5 1018.5 973.8
Ю 1 55 км 10/10 700 м
[]
+6.3 +4.7 89 +5 +5 1018.6 973.8
ЮЗ 3 65 км {дождь, морось} 10/10 600 м
[]
+6.4 +4.2 86 +3 +3 1019.1 974.3 +0.2 +8.0 0.0
З 3 >70 км слаб. дождь {морось} 10/10 750 м
[]
+5.7 +3.9 88 +2 +2 1019.6 974.7
ЮЗ 1 65 км в посл. час дождь {морось} 10/10 660 м
[]
+5.9 +4.1 88 +5 +5 1019.8 974.9
Ю 3 65 км {дождь, морось} 10/10 840 м
[]
+5.7 +3.8 88 +2 +2 1019.8 974.9 0.0
ЮЗ 4 >70 км в посл. час дождь {морось} 10/10 1170 м
[]
+5.8 +4.0 88 +2 +2 1019.7 974.8
Ю 1 65 км в посл. час дождь {морось} 9/9 1320 м
[]
+5.9 +4.2 89 +5 +5 1019.9 975.0
Ю 3 65 км в посл. час дождь {морось} 10/10 1500 м
[]
+5.4 +3.8 89 +2 +2 1019.6 974.6 0.0
ЮЗ 4 45 км в посл. час дождь {морось} 9/9 960 м
[]
+4.9 +3.7 92 +1 +1 1019.1 974.1
Ю 3 45 км в посл. час морось 10/10 720 м
[]
+4.8 +3.3 90 +1 +1 1018.7 973.7
Ю 2 50 км {дождь, морось} 10/10 1300 м
[]
+5.0 +3.2 88 +2 +2 1018.0 973.0 0.0
ЮВ 4-5
{5}
40 км 10/10 1320 м
[]
+4.3 +3.0 91 -0 -0 1017.3 972.3
ЮВ 4 35 км 10/10 1200 м
[]
+3.8 +2.9 94 -1 -1 1016.6 971.5
Ю 2 35 км {дождь, морось} 10/10 1000 м
[]
+3.4 +2.7 95 0 0 1016.6 971.4 +3.3 +6.4 0.0
Ю 3-5
{5}
55 км 10/10 1000 м
[]
+4.2 +3.0 92 0 0 1016.1 971.1
ЮВ 4-5
{5}
60 км 10/10 960 м
[]
+5.0 +2.9 86 +1 +1 1015.8 970.9
ЮВ 3 >70 км 9/9 960 м
[]
+5.2 +3.0 86 +2 +2 1015.7 970.9
ЮВ 3 50 км 9/9 1000 м
[]
+6.3 +3.1 80 +3 +3 1014.7 970.1
ЮЗ 4 >70 км 9/9 600 м
[]
+8.1 +3.7 74 +5 +5 1013.6 969.3
ЮЗ 4 >70 км 10/10 700 м
[]
+9.0 +3.6 69 +6 +6 1012.4 968.3
ЮЗ 3-8
{8}
>70 км 10/10 870 м
[]
+8.7 +3.9 72 +6 +6 1011.3 967.2
Ю 3-5
{8}
>70 км 10/10 930 м
[]
+9.1 +4.5 73 +7 +7 1010.3 966.3
Ю 3 >70 км 10/10 1000 м
[]
+8.5 +4.0 73 +6 +6 1009.4 965.4
Ю 3 >70 км 10/0
[]
+7.9 +3.9 76 +5 +5 1009.0 964.9
ЮВ 4 >70 км 10/10 1170 м
[]
+7.9 +4.0 76 +5 +5 1008.5 964.4
ЮВ 4 >70 км 10/10 1000 м
[]
+7.2 +4.0 80 +4 +4 1008.2 964.0 +3.3 +9.5
ЮВ 4 55 км слаб. морось {дождь} 10/10 1020 м
[]
+7.2 +4.4 82 +4 +4 1007.5 963.4
ЮВ 4 >70 км в посл. час дождь {морось} 10/10 1300 м
[]
+7.4 +4.2 80 +4 +4 1007.0 962.9
ЮВ 4 21 км слаб. дождь {морось} 10/10 1140 м
[]
+6.5 +4.4 86 +3 +3 1006.7 962.5 0.2
ЮВ 4 13 км морось {дождь} 9/9 150 м
[]
+6.0 +5.2 95 +2 +2 1006.6 962.3
ЮВ 3 45 км в посл. час морось 10/10 1350 м
[]
+6.2 +5.3 94 +3 +3 1006.1 961.9
Ю 3 65 км {дождь, морось} 10/10 1000 м
[]
+7.1 +5.9 92 +4 +4 1005.8 961.7 1
З 8 >70 км в посл. час дождь {морось} 10/10 1200 м
[]
+7.4 +4.2 80 +2 +2 1006.8 962.7
ЮЗ 4-6
{12}
65 км в посл. час дождь 9/9 1500 м
[]
+6.8 +3.2 78 +3 +3 1007.0 962.8
З 4 65 км {дождь, морось} 10/0 2000 м
[]
+6.6 +3.1 78 +3 +3 1007.2 963.0 0.0
З 3 55 км в посл. час дождь {морось} 10/10 1410 м
[]
+6.5 +3.2 79 +3 +3 1006.7 962.5
ЮЗ 3 55 км 10/10 1500 м
[]
+5.7 +2.1 78 +3 +3 1006.3 962.0
Ю 3 >70 км {дождь, морось} 10/0
[]
+5.6 +2.2 79 +2 +2 1006.4 962.0 +5.6 +7.8 1
Ю 3 60 км 10/10 1110 м
[]
+5.5 +2.8 83 +2 +2 1006.6 962.2
ЮВ 4-6
{6}
55 км 3/0
[]
+4.8 +2.5 85 +1 +1 1006.6 962.1
ЮВ 4 55 км 5/0
[]
+4.8 +2.2 83 +1 +1 1006.6 962.1
ЮВ 3-5
{6}
55 км 3/0
[]
+5.6 +2.1 78 +2 +4 1006.3 961.9
Ю 3 55 км 10/10 1230 м
[]
+7.4 +2.2 70 +5 +5 1005.4 961.4
ЮЗ 4 >70 км 10/10 1080 м
[]
+8.0 +2.2 67 +5 +5 1005.1 961.2
Ю 3 65 км 10/10 1200 м
[]
+8.4 +2.7 67 +6 +6 1004.9 961.0
ЮЗ 4 >70 км 9/9 1410 м
[]
+9.1 +2.3 62 +6 +6 1004.3 960.6
ЮЗ 4 65 км 6/6 1500 м
[]
+7.3 +1.7 68 +4 +4 1004.9 960.9
ЮЗ 3 >70 км 10/0
[]
+6.4 +2.1 74 +3 +3 1005.8 961.6
ЮЗ 4 >70 км 9/9 1200 м
[]
+5.4 +2.4 81 +1 +1 1006.5 962.1
З 3 55 км слаб. морось {дождь} 5/5 600 м
[]
+4.9 +2.7 86 +1 +1 1007.7 963.2 +4.4 +9.2 0.0
ЮЗ 2 >70 км в посл. час дождь {морось} 10/10 720 м
[]
+4.5 +3.4 93 +2 +2 1008.5 963.9
З 2 28 км слаб. морось {дождь} 10/10 600 м
[]
+4.5 +3.5 93 +2 +2 1009.8 965.1
З 2 18 км слаб. дождь {морось} 10/10 480 м
[]
+4.6 +4.0 96 +2 +2 1011.0 966.3 0.4
СЗ 3 >70 км в посл. час дождь {морось} 10/10 500 м
[]
+4.5 +3.6 94 +1 +1 1012.2 967.4
З 2 50 км в посл. час дождь {морось} 10/10 330 м
[]
+4.5 +3.6 94 +2 +2 1013.6 968.8
З 3 45 км в посл. час дождь {морось} 9/9 600 м
[]
+4.1 +3.2 94 0 0 1014.7 969.7 0.1
З 3 27 км слаб. дождь {морось} 10/10 500 м
[]
+4.3 +3.6 95 0 0 1016.0 971.0
СЗ 5 >70 км в посл. час дождь {морось} 10/10 630 м
[]
+4.4 +2.6 88 -1 -1 1017.6 972.6
СЗ 3 45 км слаб. морось {дождь} 10/10 540 м
[]
+3.5 +2.2 91 -1 -1 1019.6 974.3 0.5
СЗ 3 45 км в посл. час дождь {морось} 9/9 1020 м
[]
+2.7 +1.1 89 -1 -1 1021.2 975.7
СЗ 3 35 км 9/9 660 м
[]
+2.2 +0.5 89 -2 -2 1022.7 977.1
СЗ 3 35 км {дождь, морось} ясно +1.3 -0.2 90 -3 -3 1024.3 978.4 +1.3 +5.4 1
З 3-4
{5}
35 км 10/10 1300 м
[]
+1.5 -0.2 88 -3 -3 1025.6 979.7
З 5-7
{7}
29 км 10/10 1350 м
[]
+2.0 +0.3 88 -4 -4 1026.4 980.6
З 5 26 км 10/10 480 м
[]
+2.7 +0.6 86 -3 -3 1027.5 981.7
З 5-9
{9}
29 км 10/10 1500 м
[]
+3.4 -0 -0 1027.8 982.1
З 4-6
{7}
28 км 10/10 1410 м
[]
+3.7 +0.8 81 -1 -1 1027.8 982.2
З 4 30 км 10/10 480 м
[]
+4.1 +0.7 78 -0 -0 1028.2 982.6
30 км н/о +3.7 +0.3 78 1028.4 982.7
ЮЗ 3 30 км 10/10 1500 м
[]
+3.3 +0.3 81 -1 -1 1028.3 982.6
ЮЗ 4-5
{6}
30 км 9/9 1500 м
[]
+2.7 -0.2 81 -2 -2 1028.1 982.3
Ю 1-2
{5}
19 км 10/10 1440 м
[]
+2.0 -0.2 85 0 0 1028.0 982.1
Ю 1 23 км ясно +0.8 -0.7 90 -1 -1 1027.9 981.8 +0.7
ЮВ 2-2
{3}
20 км ясно +0.2 -0.6 94 -4 -4 1027.8 981.6
штиль 0-1
{3}
15 км ясно -0.8 -1.4 96 -2 -2 1027.7 981.3
ЮВ 2-3
{3}
11 км ясно -1.2 -1.5 98 -5 -5 1027.0 980.6
ЮВ 2-2
{3}
11 км ясно -1.4 -1.7 98 -5 -5 1026.8 980.4
ЮВ 1-2
{3}
11 км ясно -1.5 -1.8 98 -4 -4 1026.4 980.0
ЮВ 2 7000 м дымка 6/6 60 м
[]
-1.4 -1.7 98 -5 -5 1025.6 979.2
ЮВ 2-4
{4}
3300 м дымка 10/10 60 м
[]
-1.0 -1.1 99 -5 -5 1024.8 978.5
ЮВ 3-6
{6}
500 м переохл. туман {дымка} 10/10 30 м
[]
-1.4 -1.5 99 -7 -7 1023.7 977.4
ЮВ 2 4700 м в посл. час туман {дымка} 10/10 60 м
[]
-1.5 -1.7 99 -6 -6 1022.7 976.4
ЮВ 3-5
{5}
10 км 3/3 60 м
[]
-2.1 -2.7 96 -7 -7 1021.7 975.4
ЮВ 2 7000 м дымка 8/8 90 м
[]
-2.4 -2.8 97 -7 -7 1020.9 974.6
ЮВ 3 9000 м {туман, дымка} 8/0
[]
-2.5 -3.1 96 -8 -8 1020.5 974.2 -2.7 +1.3
ЮВ 4 6000 м дымка 10/10 90 м
[]
-2.2 -2.8 96 -8 -8 1019.8 973.5
ЮВ 4 10 км 10/10 120 м
[]
-2.1 -2.9 94 -8 -8 1019.6 973.4
ЮВ 5 7000 м дымка 10/10 120 м
[]
-2.4 -3.4 93 -9 -9 1019.1 972.8
ЮВ 5 9000 м 9/9 150 м
[]
-1.6 -2.6 93 -8 -8 1018.2 972.1
ЮВ 5 18 км 10/10 240 м
[]
+0.2 -2.4 83 -6 -6 1016.4 970.7
ЮВ 3 18 км 10/10 300 м
[]
+0.5 -2.3 81 -4 -4 1015.3 969.7
ЮВ 4 19 км 10/0
[]
+0.6 -2.3 81 -5 -4 1013.8 968.3
ЮВ 3-6
{6}
22 км 10/0
[]
+0.8 -2.1 81 -4 -3 1013.2 967.7
ЮВ 3 19 км 10/0
[]
+0.5 -2.2 82 -4 -4 1012.4 966.9
ЮВ 2 18 км 10/0
[]
+0.1 -1.8 87 -4 -4 1012.0 966.5
ЮВ 2 19 км 10/0
[]
-0.2 -2.0 88 -4 -4 1011.5 966.0
ЮВ 3 22 км 10/0
[]
+0.1 -2.1 85 -5 -5 1010.9 965.4 -2.5 +0.9
Ю 2 25 км 10/10 1320 м
[]
+0.2 -2.0 85 -3 -3 1011.2 965.7
ЮВ 3 29 км 10/10 1020 м
[]
+0.4 -2.3 82 -4 -4 1010.7 965.3
ЮВ 3 30 км в посл. час дождь 10/10 800 м
[]
+0.4 -2.5 81 -4 -4 1010.6 965.2 0.0
ЮВ 3 30 км 10/10 480 м
[]
+0.4 -2.5 81 -4 -4 1010.2 964.8
ЮВ 2 30 км 10/10 450 м
[]
+0.4 -2.5 81 -3 -3 1009.9 964.5
ЮВ 3 3000 м слаб. снег {дождь} 9/9 300 м
[]
-0.4 -1.7 91 -5 -5 1009.5 964.0 0.2
ЮВ 2 8000 м слаб. переохл. морось (гололёд) 10/10 240 м
[]
-0.3 -1.1 94 -4 -4 1009.0 963.6
ЮВ 3-5
{5}
4700 м слаб. снег {морось} 10/10 150 м
[]
-0.4 -1.1 95 -5 -5 1008.6 963.2
ЮВ 3 3400 м слаб. снег {морось} 9/9 150 м
[]
-0.3 -0.7 97 -5 -5 1008.1 962.7 0.1
ЮВ 3-5
{5}
2100 м слаб. снег 10/10 120 м
[]
-0.3 -0.5 99 -5 -5 1008.0 962.6
ЮВ 3-5
{5}
2100 м слаб. снег 10/10 150 м
[]
-0.3 -0.6 98 -5 -5 1008.2 962.8
ЮВ 2 1800 м слаб. снег {морось} 10/10 100 м
[]
-0.3 -0.7 97 -4 -4 1008.5 963.1 -0.4 +0.4 2 1
ЮВ 2-3
{5}
2900 м слаб. снег 10/10 120 м
[]
-0.1 -0.3 99 -4 -4 1008.7 963.3
ЮВ 2-3
{4}
3200 м слаб. морось 10/10 90 м
[]
+0.1 -0.2 98 -4 -4 1008.6 963.2
ЮВ 3 3600 м в посл. час зёрна {морось} 10/10 120 м
[]
+0.5 -0.1 96 -4 -4 1008.6 963.3 0.6
ЮВ 2-4
{4}
3000 м дымка 10/10 90 м
[]
+0.6 -0.1 95 -3 -3 1008.4 963.1
ЮВ 2 3900 м дымка 10/10 90 м
[]
+1.1 +0.2 94 -3 -3 1007.8 962.6
ЮВ 2 3500 м дымка {снег} 9/9 60 м
[]
+1.0 +0.3 95 -3 -2 1007.2 962.1
ЮВ 3 2900 м слаб. дождь {морось} 10/10 60 м
[]
+1.0 +0.6 97 -4 -4 1006.4 961.3
ЮВ 2 2900 м в посл. час дождь {морось} 9/9 30 м
[]
+1.2 +0.7 96 -2 -2 1005.7 960.7
ЮВ 3 2700 м слаб. морось {дождь} 10/10 60 м
[]
+1.4 +1.1 98 -3 -3 1005.2 960.2 0.0
ЮВ 3-5
{6}
1800 м слаб. морось {дождь} 10/10 60 м
[]
+1.3 +1.1 99 -3 -3 1004.9 959.9
ЮВ 3 2700 м слаб. морось {дождь} 10/10 60 м
[]
+1.3 +1.1 99 -3 -3 1004.4 959.4
ЮВ 3 3400 м слаб. морось {дождь} 10/10 100 м
[]
+1.3 +1.2 99 -3 -3 1003.6 958.7 -0.3 +1.4 0.4
ЮВ 2 2600 м в посл. час дождь {морось} 10/10 60 м
[]
+1.3 +1.0 98 -2 -2 1002.7 957.8
ЮВ 3-5
{5}
600 м туман {дымка} 10/10 30 м
[]
+1.2 +1.1 99 -4 -4 1001.8 956.9
ЮВ 3 н/о {дождь, морось} 10/10 30 м
[]
+1.2 +1.0 99 -4 -4 1000.6 955.8 0.0
ЮВ 3-5
{5}
500 м туман {дымка} 9/9 30 м
[]
+1.2 +1.1 99 -4 -4 999.2 954.5
ЮВ 3-4
{6}
300 м туман 10/10 30 м
[]
+1.1 +1.1 100 -4 -4 997.9 953.2
ЮВ 4 300 м туман {дождь} 10/10 <50 м
[]
+0.6 +0.6 100 -5 -5 996.4 951.7
ЮВ 4 6000 м в посл. час туман {дымка} 10/10 90 м
[]
+0.6 +0.1 96 -5 -5 994.9 950.2
ЮВ 4-8
{9}
11 км 10/10 210 м
[]
+0.7 -0.4 92 -5 -5 993.3 948.7
ЮВ 5 10 км {туман, дымка} 10/10 180 м
[]
+0.7 -0.3 93 -5 -5 991.4 946.9
ЮВ 5-9
{9}
11 км 10/10 210 м
[]
+0.6 -0.6 92 -5 -5 990.1 945.7
ЮВ 4-7
{10}
9000 м 10/10 210 м
[]
+0.2 -0.8 93 -5 -5 988.7 944.3
ЮВ 3 8000 м слаб. снег {морось} 9/9 200 м
[]
+0.4 -0.7 92 -4 -4 987.6 943.2 +0.1 +1.3 0.0
ЮВ 4-7
{8}
7000 м в посл. час снег {морось} 10/10 180 м
[]
+0.1 -0.9 93 -5 -5 986.7 942.3
ЮВ 5 6000 м в посл. час зёрна {морось} 10/10 180 м
[]
+0.2 -0.9 92 -6 -6 984.7 940.4
ЮВ 4 10 км {снег, морось} 10/10 180 м
[]
+0.1 -1.2 91 -5 -5 983.8 939.6 0.0
ЮВ 4 14 км 10/10 210 м
[]
+0.5 -0.9 90 -5 -5 983.8 939.6
Местоположение метеостанции Регенсбург (Германия): широта 49.05 долгота 12.10 высота над уровнем моря 376 м.
В архиве по умолчанию представлена погода в Регенсбурге за последнюю неделю. Архивные данные за месяц целиком и за предыдущие месяцы, начиная с января 2011 года, Вы можете получить, выбрав интересующий диапазон дат из раскрывающегося списка и нажав кнопку "Найти!".
*Определитесь, кто Вы:
Внимание! Время в таблицах - всемирное. Для получения местного времени необходимо прибавить поправку, которая равна 1 ч.
Смотрите также архив погоды в соседних городах и на ближайших метеорологических станциях:
Партнеры нашего сайта:      
Пояснения к столбцам:
  • Ветер - указаны скорость ветра в м/с - средняя за 10 мин, порывы в срок и между сроками (в фигурных скобках) и направление, откуда дует ветер: С - северный,
  • СВ - северо-восточный, В - восточный, ЮВ - юго-восточный, Ю - южный, ЮЗ - юго-западный, З - западный, СЗ - северо-западный.
  • Видимость - горизонтальная дальность видимости в метрах или километрах. При видимости от 1 до 10 км при отсутствии осадков обычно наблюдается дымка, при ухудшении видимости до 1 км и менее - туман. В сухую погоду видимость может ухудшаться дымом, пылью или мглою.
  • Явления - указаны атмосферные явления, наблюдавшиеся в срок или в последний час перед сроком; фигурными скобками обозначены явления, наблюдавшиеся между сроками (за 1-3 часа до срока); квадратными скобками обозначены град или гололедные отложения с указанием их диаметра в мм.
  • Облачность - указаны через наклонную черту общая и нижняя облачность в баллах и высота нижней границы облаков в метрах; квадратными скобками обозначены формы облаков: Ci - перистые, Cs - перисто-слоистые, Cc - перисто-кучевые, Ac - высококучевые, As - высокослоистые, Sc - слоисто-кучевые, Ns - слоисто-дождевые, Cu - кучевые, Cb - кучево-дождевые. Подробнее классификацию облаков см. в Атласе облаков (PDF).
  • T - Температура воздуха - температура, измеренная на высоте 2 м над землей.
  • Td - Температура точки росы - температура, при понижении до которой содержащийся в воздухе водяной пар достигнет насыщения.
  • f - Относительная влажность воздуха - влажноcть воздуха, измеренная на высоте 2 м над землей.
  • Te - Эффективная температура - температура, которую ощущает одетый по сезону человек в тени. Характеристика душности погоды. При расчете учитывается влияние влажности воздуха и скорости ветра на теплоощущения человека.
  • Tes - Эффективная температура на солнце - температура, которую ощущает человек, с поправкой на солнечный нагрев. Характеристика знойности погоды. Зависит от высоты солнца над горизонтом, облачности и скорости ветра. Ночью, в пасмурную погоду, а также при ветре 12 м/с и более поправка равна нулю.
  • P - Атмосферное давление - приведенное к уровню моря атмосферное давление.
  • Po - Атмосферное давление - измеренное на уровне метеостанции атмосферное давление.
  • Tmin - Минимальная температура - минимум температуры воздуха на высоте 2 м над землей.
  • Tmax - Максимальная температура - максимум температуры воздуха на высоте 2 м над землей.
  • R - Количество осадков - Количество выпавших осадков за период времени, мм. При наведении курсора мыши на число - период времени, за который выпало указанное количество осадков.
  • R24 - Количество осадков - Количество выпавших осадков за 24 часа, мм.
  • S - Снежный покров - Высота снежного покрова, см. При наведении курсора мыши на число - состояние снежного покрова и степень покрытия местности в баллах.